Location: Brunsen
(51.8651°N, 9.8610°E)
Time: 16:07:22
(UTC+00:00)

Cosmos 1833 Rocket - Pass Details

Date: 23 May 2024
Orbit: 831 x 840 km, 71.0° (Epoch: 24 June)

Event Time Altitude Azimuth Distance (km) Brightness Sun altitude
Exits shadow 00:07:59 16° 236° (SW) 2,019 4.3 -16.7°
Maximum altitude 00:12:15 52° 308° (NW) 1,037 3.3 -16.5°
Drops below altitude 10° 00:17:44 10° 24° (NNE) 2,455 6.4 -16.3°
Sets 00:20:16 0° 30° (NNE) 3,394 7.4 -16.2°
